Tracking 35274 objects as of 10-Sep-2026
HD Live streaming from Space Station
objects crossing your sky now

S-NET C

Track S-NET C now!
10-day predictions
S-NET C is classified as:


NORAD ID: 43189
Int'l Code: 2018-014K
Launch date: February 1, 2018
Source: Germany (GER)
Launch site: VOSTOCHNY COSMODROME (VOSTO)

Uplink (MHz):
Downlink (MHz): 435.950/2263.000
Beacon (MHz):
Mode: 1k2*/2k4 FFSK
Call sign: DP0TBD
Status: Inactive

Your satellite tracking list
Your tracking list is empty




NASA's NSSDC Master Catalog

Two Line Element Set (TLE):
1 43189U 18014K   26252.97480378  .00003924  00000-0  20003-3 0  9998
2 43189  97.5295 157.5330 0011706  75.6553 284.5979 15.17300397470162
Source of the keplerian elements: AFSPC